Regional Weather Roundup
Issued by NWS

Home | Current Version | Previous Version | Text Only | Print | Product List | Glossary On
Versions: 1 2 3 4 5 6 7 8 9 10 11 12 13 14 15 16 17 18 19 20 21 22 23 24 25 26 27 28 29 30 31 32 33 34 35 36 37 38 39 40 41 42 43 44 45 46 47 48 49 50
000
ASUS43 KTOP 270308
RWRKS

WEATHER ROUNDUP FOR KANSAS
NATIONAL WEATHER SERVICE GOODLAND KS
1000 PM CDT SUN APR 26 2015

NOTE:  "FAIR" INDICATES FEW OR NO CLOUDS BELOW 12,000 FEET WITH NO
SIGNIFICANT WEATHER AND/OR OBSTRUCTIONS TO VISIBILITY.

KSZ001>006-013>018-027>032-041>047-270400-
NORTHWEST KANSAS

CITY           SKY/WX    TMP DP  RH WIND       PRES   REMARKS
GOODLAND       LGT RAIN  44  43  96 E10       30.06R
HAYS           CLOUDY    48  39  71 NE5       30.03R
HILL CITY      CLOUDY    48  43  82 E3        30.05R
RUSSELL        CLOUDY    48  44  86 N6        29.99R
$$

KSZ061>065-074>080-084>089-270400-
SOUTHWEST KANSAS

CITY           SKY/WX    TMP DP  RH WIND       PRES   REMARKS
DODGE CITY     LGT RAIN  47  44  90 NE14      30.01R FOG
ELKHART          N/A     47  40  77 E20         N/A
GARDEN CITY    CLOUDY    46  45  96 NE13      29.99R FOG
GREAT BEND     CLOUDY    50  43  76 NE7       30.01R
LIBERAL        CLOUDY    50  46  87 NE9       29.96R
$$

KSZ066>073-081>083-090>101-270400-
SOUTHEAST KANSAS

CITY           SKY/WX    TMP DP  RH WIND       PRES   REMARKS
CHANUTE        CLOUDY    53  46  77 NE8       29.92R
COFFEYVILLE    CLOUDY    53  45  74 NE9       29.92R
HUTCHINSON     CLOUDY    52  45  77 N6        29.97R
MEDICINE LODGE   N/A     51  45  79 NE20G29   29.89F
NEWTON         CLOUDY    50  43  76 NE7       29.96R
PARSONS        CLOUDY    53  47  79 VRB3      29.93R
WICHITA INTL   CLOUDY    53  45  74 E10       29.94R
WICHITA JABRA  CLOUDY    50  45  83 E3        29.95R
WICHITA MCCONL CLOUDY    52  45  77 NE8       29.94R
WINFIELD       CLOUDY    52  44  74 NE16G24   29.90F
$$

KSZ007>012-019>026-033>040-048>060-102>105-270400-
NORTHEAST KANSAS

CITY           SKY/WX    TMP DP  RH WIND       PRES   REMARKS
CONCORDIA      PTCLDY    50  41  71 NE8       30.01R
EMPORIA        FAIR      51  44  77 NE8       29.95R
LAWRENCE       MOCLDY    50  39  66 NE7       30.01R
MANHATTAN      PTCLDY    50  42  74 NE8       29.99R
MARYSVILLE     PTCLDY    50  39  66 NE8       30.03R
OLATHE IND     PTCLDY    52  38  58 NE8       30.00R
OLATHE EXE     PTCLDY    52  36  54 NE8       29.99R
SALINA         MOCLDY    53  44  71 N6        29.98R
TOPEKA BILLARD MOCLDY    53  39  59 NE7       30.01R
TOPEKA FORBES  PTCLDY    55  39  54 NE7       29.99R
$$



USA.gov is the U.S. government's official web portal to all federal, state and local government web resources and services.